Radiation Dose at Monitoring Post of Fukushima Daini Nuclear Power Station
Date,Time,MP-1(microSv/h),MP-2(microSv/h),MP-3(microSv/h),MP-4(microSv/h),MP-5(microSv/h),MP-6(microSv/h),MP-7(microSv/h),Wind Direction,Wind Velocity(m/s),Rain
2017/07/02,00:00,0.360,0.226,0.377,0.349,0.331,0.181,0.109,west-northwest,1.9,Yes
2017/07/02,00:10,0.361,0.225,0.376,0.349,0.328,0.183,0.110,west,2.2,Yes
2017/07/02,00:20,0.359,0.227,0.378,0.347,0.326,0.185,0.109,west,1.9,Yes
2017/07/02,00:30,0.363,0.227,0.381,0.352,0.332,0.184,0.112,west,2.5,Yes
2017/07/02,00:40,0.362,0.225,0.375,0.348,0.327,0.186,0.112,east-southeast,1.2,Yes
2017/07/02,00:50,0.357,0.227,0.376,0.347,0.326,0.185,0.112,east,1.4,Yes
2017/07/02,01:00,0.359,0.228,0.375,0.349,0.330,0.185,0.114,west-northwest,0.8,Yes
2017/07/02,01:10,0.359,0.228,0.372,0.345,0.327,0.187,0.114,west-northwest,0.7,Yes
2017/07/02,01:20,0.358,0.230,0.375,0.348,0.329,0.187,0.117,south-southwest,5.9,Yes
2017/07/02,01:30,0.360,0.229,0.371,0.349,0.331,0.188,0.118,south-southwest,5.7,Yes
2017/07/02,01:40,0.357,0.231,0.370,0.343,0.328,0.189,0.118,south,3.6,Yes
2017/07/02,01:50,0.357,0.231,0.372,0.346,0.330,0.188,0.119,south,3.8,Yes
2017/07/02,02:00,0.359,0.230,0.369,0.346,0.332,0.187,0.117,south-southwest,4.6,Yes
2017/07/02,02:10,0.354,0.228,0.372,0.346,0.328,0.187,0.117,south-southwest,6.2,Yes
2017/07/02,02:20,0.355,0.227,0.369,0.347,0.330,0.185,0.115,south-southwest,5.1,Yes
2017/07/02,02:30,0.354,0.226,0.368,0.340,0.328,0.184,0.113,south-southwest,3.9,Yes
2017/07/02,02:40,0.351,0.223,0.368,0.344,0.325,0.183,0.114,southwest,4.5,No
2017/07/02,02:50,0.356,0.222,0.363,0.343,0.329,0.181,0.111,southwest,5.9,No
2017/07/02,03:00,0.351,0.222,0.367,0.337,0.324,0.181,0.110,southwest,7.5,No
2017/07/02,03:10,0.347,0.219,0.366,0.340,0.323,0.179,0.109,south-southwest,5.5,No
2017/07/02,03:20,0.351,0.220,0.361,0.338,0.325,0.178,0.107,south-southwest,4.2,No
2017/07/02,03:30,0.348,0.219,0.364,0.334,0.321,0.179,0.107,south,3.3,No
2017/07/02,03:40,0.347,0.217,0.361,0.340,0.323,0.177,0.108,south,4.5,No
2017/07/02,03:50,0.349,0.219,0.360,0.337,0.324,0.176,0.107,south,4.0,No
2017/07/02,04:00,0.344,0.218,0.363,0.337,0.321,0.176,0.106,south,3.9,No
2017/07/02,04:10,0.349,0.218,0.360,0.337,0.324,0.175,0.105,south,4.9,No
2017/07/02,04:20,0.347,0.218,0.360,0.335,0.321,0.177,0.105,south-southwest,6.2,No
2017/07/02,04:30,0.346,0.216,0.361,0.337,0.320,0.176,0.106,south-southwest,7.3,No
2017/07/02,04:40,0.349,0.218,0.359,0.334,0.322,0.175,0.105,south-southwest,7.7,No
2017/07/02,04:50,0.345,0.216,0.363,0.335,0.320,0.175,0.105,south-southwest,8.1,No
2017/07/02,05:00,0.348,0.217,0.359,0.337,0.321,0.175,0.104,south-southwest,8.4,No
2017/07/02,05:10,0.349,0.217,0.360,0.333,0.322,0.176,0.105,south-southwest,9.5,No
2017/07/02,05:20,0.345,0.218,0.362,0.338,0.319,0.176,0.105,south-southwest,7.7,No
2017/07/02,05:30,0.347,0.217,0.359,0.336,0.323,0.175,0.104,south-southwest,8.9,No
2017/07/02,05:40,0.347,0.218,0.362,0.334,0.318,0.176,0.105,south-southwest,6.8,No
2017/07/02,05:50,0.345,0.217,0.360,0.337,0.321,0.176,0.105,south-southwest,5.8,No
2017/07/02,06:00,0.349,0.218,0.360,0.334,0.323,0.175,0.104,south-southwest,4.9,No
2017/07/02,06:10,0.346,0.217,0.361,0.336,0.320,0.176,0.105,south-southwest,6.9,No
2017/07/02,06:20,0.346,0.217,0.359,0.336,0.320,0.176,0.105,southwest,7.9,No
2017/07/02,06:30,0.350,0.218,0.359,0.333,0.323,0.175,0.104,southwest,8.1,No
2017/07/02,06:40,0.346,0.217,0.362,0.338,0.320,0.176,0.105,southwest,6.4,No
2017/07/02,06:50,0.344,0.217,0.360,0.337,0.318,0.176,0.105,west-southwest,6.1,No
2017/07/02,07:00,0.348,0.218,0.360,0.334,0.324,0.176,0.104,southwest,5.5,No
2017/07/02,07:10,0.347,0.218,0.362,0.337,0.321,0.176,0.105,southwest,5.0,No
2017/07/02,07:20,0.343,0.216,0.359,0.337,0.319,0.177,0.106,southwest,5.4,No
2017/07/02,07:30,0.347,0.217,0.358,0.334,0.320,0.175,0.105,south-southwest,5.0,No
2017/07/02,07:40,0.348,0.218,0.363,0.333,0.322,0.176,0.104,southwest,5.5,No
2017/07/02,07:50,0.345,0.216,0.360,0.338,0.321,0.177,0.106,southwest,5.7,No
2017/07/02,08:00,0.346,0.215,0.359,0.336,0.320,0.176,0.106,southwest,5.6,No
2017/07/02,08:10,0.349,0.218,0.362,0.333,0.320,0.175,0.105,west-southwest,4.3,No
2017/07/02,08:20,0.346,0.220,0.361,0.336,0.324,0.176,0.104,west-southwest,3.8,No
2017/07/02,08:30,0.345,0.218,0.360,0.339,0.321,0.177,0.104,west-southwest,3.4,No
2017/07/02,08:40,0.347,0.217,0.358,0.335,0.320,0.176,0.106,west,2.5,No
2017/07/02,08:50,0.351,0.216,0.364,0.334,0.318,0.176,0.105,southwest,3.3,No
2017/07/02,09:00,0.349,0.217,0.362,0.332,0.319,0.175,0.105,southwest,3.3,No
2017/07/02,09:10,0.347,0.219,0.359,0.336,0.321,0.176,0.104,southwest,3.1,No
2017/07/02,09:20,0.345,0.218,0.358,0.338,0.325,0.177,0.104,southwest,1.9,No
2017/07/02,09:30,0.343,0.217,0.360,0.335,0.324,0.178,0.104,southwest,1.9,No
2017/07/02,09:40,0.350,0.217,0.364,0.336,0.322,0.177,0.104,west-southwest,1.3,No
2017/07/02,09:50,0.351,0.217,0.360,0.336,0.320,0.177,0.104,west-southwest,1.4,No
2017/07/02,10:00,0.349,0.217,0.361,0.335,0.322,0.176,0.105,west-southwest,2.1,No
2017/07/02,10:10,0.347,0.219,0.359,0.336,0.321,0.176,0.105,west,3.3,No
2017/07/02,10:20,0.347,0.218,0.358,0.336,0.321,0.176,0.105,west-southwest,4.2,No
2017/07/02,10:30,0.349,0.219,0.360,0.336,0.322,0.177,0.105,west,4.8,No
2017/07/02,10:40,0.348,0.219,0.359,0.335,0.322,0.177,0.106,west,6.1,No
2017/07/02,10:50,0.348,0.220,0.360,0.337,0.322,0.177,0.105,west-northwest,4.2,No
2017/07/02,11:00,0.348,0.219,0.361,0.339,0.323,0.178,0.106,west-northwest,5.8,No
2017/07/02,11:10,0.351,0.220,0.362,0.338,0.323,0.177,0.106,west-northwest,6.1,No
2017/07/02,11:20,0.351,0.220,0.363,0.338,0.324,0.178,0.106,west,5.3,No
2017/07/02,11:30,0.351,0.220,0.362,0.339,0.325,0.179,0.106,west-northwest,5.5,No
2017/07/02,11:40,0.350,0.220,0.362,0.339,0.324,0.178,0.107,northwest,6.4,No
2017/07/02,11:50,0.350,0.220,0.363,0.340,0.323,0.178,0.106,west-northwest,5.1,No
2017/07/02,12:00,0.350,0.221,0.363,0.340,0.322,0.178,0.106,west-northwest,3.9,No
2017/07/02,12:10,0.350,0.220,0.362,0.338,0.323,0.179,0.106,west-northwest,5.1,No
2017/07/02,12:20,0.349,0.220,0.361,0.339,0.324,0.177,0.106,west,6.6,No
2017/07/02,12:30,0.352,0.221,0.363,0.338,0.324,0.178,0.106,west-northwest,5.8,No
2017/07/02,12:40,0.351,0.221,0.363,0.340,0.324,0.178,0.106,west-northwest,6.6,No
2017/07/02,12:50,0.355,0.221,0.364,0.340,0.326,0.179,0.106,west,7.6,No
2017/07/02,13:00,0.353,0.221,0.364,0.340,0.324,0.178,0.107,west-northwest,4.9,No
2017/07/02,13:10,0.353,0.221,0.365,0.341,0.326,0.178,0.107,west,5.4,No
2017/07/02,13:20,0.353,0.220,0.365,0.340,0.325,0.179,0.106,west,7.3,No
2017/07/02,13:30,0.352,0.220,0.365,0.339,0.324,0.178,0.106,west-northwest,5.7,No
2017/07/02,13:40,0.351,0.220,0.361,0.339,0.324,0.177,0.106,northwest,5.3,No
2017/07/02,13:50,0.349,0.219,0.362,0.338,0.322,0.178,0.105,west-southwest,2.3,No
2017/07/02,14:00,0.349,0.219,0.362,0.336,0.322,0.178,0.105,west-southwest,3.2,No
2017/07/02,14:10,0.348,0.218,0.362,0.335,0.323,0.177,0.104,west-southwest,3.2,No
2017/07/02,14:20,0.349,0.219,0.362,0.337,0.323,0.178,0.105,west-southwest,5.2,Yes
2017/07/02,14:30,0.352,0.220,0.361,0.340,0.325,0.178,0.107,west,6.1,Yes
2017/07/02,14:40,0.352,0.221,0.363,0.339,0.323,0.180,0.107,west,7.5,Yes
2017/07/02,14:50,0.352,0.222,0.363,0.339,0.324,0.182,0.109,west,6.2,Yes
2017/07/02,15:00,0.359,0.223,0.370,0.343,0.327,0.183,0.110,west-southwest,5.3,Yes
2017/07/02,15:10,0.358,0.225,0.369,0.345,0.330,0.183,0.109,west-southwest,6.4,No
2017/07/02,15:20,0.354,0.223,0.365,0.342,0.328,0.181,0.109,west,8.2,Yes
2017/07/02,15:30,0.354,0.224,0.366,0.341,0.326,0.180,0.109,west-northwest,5.6,Yes
2017/07/02,15:40,0.358,0.226,0.371,0.344,0.328,0.184,0.110,west-northwest,4.2,Yes
2017/07/02,15:50,0.355,0.225,0.368,0.344,0.330,0.182,0.111,west,4.2,No
2017/07/02,16:00,0.351,0.223,0.364,0.341,0.327,0.182,0.110,west,0.9,No
2017/07/02,16:10,0.355,0.222,0.366,0.340,0.324,0.181,0.109,west,4.2,No
2017/07/02,16:20,0.358,0.223,0.368,0.343,0.322,0.180,0.107,west,4.6,No
2017/07/02,16:30,0.353,0.223,0.365,0.341,0.326,0.180,0.108,west-southwest,6.0,No
2017/07/02,16:40,0.351,0.220,0.361,0.337,0.328,0.179,0.108,west,7.5,No
2017/07/02,16:50,0.352,0.220,0.364,0.337,0.324,0.178,0.106,west-southwest,6.2,No
2017/07/02,17:00,0.355,0.220,0.365,0.340,0.323,0.179,0.106,southwest,7.4,No
2017/07/02,17:10,0.350,0.221,0.365,0.340,0.322,0.179,0.106,southwest,6.7,Yes
2017/07/02,17:20,0.349,0.221,0.361,0.337,0.325,0.179,0.106,west-southwest,5.6,Yes
2017/07/02,17:30,0.355,0.219,0.364,0.338,0.325,0.179,0.107,west,7.5,Yes
2017/07/02,17:40,0.356,0.220,0.366,0.342,0.323,0.179,0.107,west,7.3,Yes
2017/07/02,17:50,0.355,0.225,0.364,0.340,0.322,0.181,0.107,west,7.1,Yes
2017/07/02,18:00,0.356,0.223,0.365,0.338,0.328,0.180,0.108,west-southwest,5.6,Yes
2017/07/02,18:10,0.357,0.223,0.369,0.341,0.326,0.178,0.107,west,8.8,Yes
2017/07/02,18:20,0.356,0.225,0.366,0.342,0.323,0.179,0.107,west,7.0,Yes
2017/07/02,18:30,0.352,0.222,0.363,0.339,0.324,0.181,0.108,west,4.9,Yes
2017/07/02,18:40,0.356,0.221,0.364,0.337,0.328,0.180,0.107,west-northwest,5.3,Yes
2017/07/02,18:50,0.353,0.222,0.366,0.342,0.326,0.178,0.107,west-northwest,4.6,No
2017/07/02,19:00,0.350,0.221,0.364,0.340,0.322,0.179,0.106,northwest,3.7,No
2017/07/02,19:10,0.354,0.219,0.361,0.337,0.324,0.178,0.107,north-northwest,4.2,No
2017/07/02,19:20,0.355,0.220,0.364,0.339,0.326,0.177,0.106,northwest,2.5,No
2017/07/02,19:30,0.350,0.221,0.364,0.341,0.323,0.178,0.106,west,3.1,No
2017/07/02,19:40,0.350,0.220,0.362,0.338,0.321,0.178,0.106,west,4.5,No
2017/07/02,19:50,0.353,0.218,0.361,0.336,0.322,0.178,0.107,west,6.0,No
2017/07/02,20:00,0.351,0.221,0.365,0.339,0.325,0.178,0.105,west,6.8,No
2017/07/02,20:10,0.349,0.220,0.364,0.340,0.323,0.179,0.106,west,7.0,Yes
2017/07/02,20:20,0.355,0.219,0.361,0.338,0.321,0.178,0.106,west,5.7,Yes
2017/07/02,20:30,0.352,0.220,0.363,0.337,0.322,0.178,0.106,west,6.7,Yes
2017/07/02,20:40,0.349,0.221,0.368,0.341,0.325,0.180,0.107,west-northwest,5.5,Yes
2017/07/02,20:50,0.353,0.218,0.364,0.337,0.322,0.178,0.108,west-northwest,4.5,Yes
2017/07/02,21:00,0.352,0.220,0.361,0.335,0.323,0.178,0.106,northwest,2.5,Yes
2017/07/02,21:10,0.350,0.221,0.367,0.341,0.325,0.179,0.108,west,2.5,No
2017/07/02,21:20,0.352,0.220,0.364,0.339,0.322,0.178,0.107,-,CALM,No
2017/07/02,21:30,0.353,0.219,0.361,0.334,0.321,0.177,0.107,north,1.2,No
2017/07/02,21:40,0.349,0.220,0.367,0.340,0.325,0.179,0.105,east-southeast,1.0,No
2017/07/02,21:50,0.351,0.218,0.364,0.338,0.322,0.178,0.106,east-southeast,1.9,No
2017/07/02,22:00,0.352,0.219,0.360,0.336,0.319,0.177,0.106,northwest,1.4,No
2017/07/02,22:10,0.349,0.219,0.366,0.338,0.323,0.177,0.105,west-northwest,1.7,No
2017/07/02,22:20,0.352,0.217,0.362,0.339,0.323,0.178,0.106,west-northwest,1.4,No
2017/07/02,22:30,0.352,0.219,0.360,0.336,0.320,0.177,0.105,-,CALM,No
2017/07/02,22:40,0.350,0.219,0.364,0.336,0.323,0.177,0.106,south-southeast,1.0,No
2017/07/02,22:50,0.350,0.217,0.363,0.340,0.324,0.179,0.106,-,CALM,No
2017/07/02,23:00,0.353,0.220,0.360,0.335,0.321,0.176,0.105,west-northwest,0.5,Yes
2017/07/02,23:10,0.349,0.221,0.364,0.335,0.321,0.178,0.105,west-northwest,1.1,Yes
2017/07/02,23:20,0.350,0.219,0.365,0.341,0.325,0.180,0.108,west-northwest,1.3,Yes
2017/07/02,23:30,0.356,0.221,0.362,0.338,0.325,0.180,0.109,northwest,2.6,Yes
2017/07/02,23:40,0.352,0.222,0.366,0.338,0.321,0.181,0.109,west-northwest,2.2,Yes
2017/07/02,23:50,0.351,0.221,0.364,0.339,0.327,0.182,0.110,northwest,3.1,Yes
